Notices

What's New in latest Release from April 7th, 2021:

- Updated Glossary, including Speed of Maximum Gust, and Total Hourly Precipitation

- Updated national and regional climate services offices contacts and prices information

- Addition of station inventory lists for 1981-2010, 1971-2000, and 1961-1990 Normals.

If you haven't already, please take our survey and provide feedback about our website: https://eccc.sondage-survey.ca/f/LanguageSelection.aspx?s=442ca660-fcf1-47c0-95a9-59707d6fd709

Hourly Data Report for April 15, 2004

TORONTO CITY
ONTARIO

43°40'00.000" N
79°24'00.000" W
112.50 m
6158355
71508
XTO

Download Data

Hourly Data (April 2004)
Hourly Data Report for April 15, 2004
TIME
LST
Temp Definition
°C
Dew Point Definition
°C
Rel Hum Definition
%
Precip. Amount Definition
mm

Wind Dir Definition
10's deg

Wind Spd Definition
km/h
Visibility Definition
km
Stn Press Definition
kPa
Hmdx Definition


Wind Chill Definition


Weather Definition


00:00 6.1 -2.8 53   LegendMM LegendMM LegendMM 100.43     LegendNANA
01:00 5.8 -2.6 55   LegendMM LegendMM LegendMM 100.46     LegendNANA
02:00 5.4 -2.8 55   LegendMM LegendMM LegendMM 100.51     LegendNANA
03:00 4.2 -2.3 63   LegendMM LegendMM LegendMM 100.60     LegendNANA
04:00 3.7 -2.4 64   LegendMM LegendMM LegendMM 100.66     LegendNANA
05:00 4.4 -2.5 61   LegendMM LegendMM LegendMM 100.74     LegendNANA
06:00 4.0 -2.3 63   LegendMM LegendMM LegendMM 100.82     LegendNANA
07:00 5.3 -2.4 58   LegendMM LegendMM LegendMM 100.92     LegendNANA
08:00 7.3 -3.6 46   LegendMM LegendMM LegendMM 101.00     LegendNANA
09:00 9.0 -3.6 41   LegendMM LegendMM LegendMM 101.05     LegendNANA
10:00 9.4 -4.6 37   LegendMM LegendMM LegendMM 101.11     LegendNANA
11:00 9.2 -4.8 37   LegendMM LegendMM LegendMM 101.13     LegendNANA
12:00 9.1 -5.3 36   LegendMM LegendMM LegendMM 101.10     LegendNANA
13:00 9.1 -9.0 27   LegendMM LegendMM LegendMM 101.08     LegendNANA
14:00 9.2 -9.9 25   LegendMM LegendMM LegendMM 101.04     LegendNANA
15:00 9.7 -6.7 31   LegendMM LegendMM LegendMM 100.98     LegendNANA
16:00 9.3 -7.5 30   LegendMM LegendMM LegendMM 100.96     LegendNANA
17:00 9.6 -6.0 33   LegendMM LegendMM LegendMM 100.97     LegendNANA
18:00 9.6 -6.0 33   LegendMM LegendMM LegendMM 100.99     LegendNANA
19:00 9.4 -5.4 35   LegendMM LegendMM LegendMM 101.02     LegendNANA
20:00 9.2 -5.6 35   LegendMM LegendMM LegendMM 101.07     LegendNANA
21:00 8.8 -4.5 39   LegendMM LegendMM LegendMM 101.10     LegendNANA
22:00 8.4 -3.2 44   LegendMM LegendMM LegendMM 101.10     LegendNANA
23:00 7.8 -2.9 47   LegendMM LegendMM LegendMM 101.10     LegendNANA

Notes on Data Quality.

Legend

  • E = Estimated
  • M = Missing
  • NA = Not Available*
  • [empty] = Indicates an unobserved value
Date modified: